RH
81 83 85 84 82 79 76 75 75 76 77 79 79 76 72 74 74 83 91 74 87 93 74 61 51 57 64 71 92 72 78 80 89 91 96 96 98 92 94 99 83 75 83 90 84 95 96 83 74 86 99 82 75 77
83 84 85 87 82 81 78 79 79 78 79 80 81 78 74 72 74 76 91 68 65 83 81 65 62 59 61 61 73 72 71 79 96 95 92 95 92 96 95 96 93 98 100 99 96 98 99 89 95 96 85 90 84 81
83 83 85 85 82 81 80 80 81 79 80 79 80 75 73 71 72 78 98 90 82 96 92 83 72 58 48 52 53 81 85 73 80 86 98 97 96 86 97 98 94 81 69 99 98 95 93 96 95 94 96 92 83 81
84 86 88 87 83 82 82 82 80 79 80 79 79 78 75 71 72 73 94 93 91 84 96 81 45 54 46 51 58 58 64 68 71 76 94 96 96 79 97 93 95 86 78 95 99 99 93 92 98 99 96 91 94 90
83 89 90 84 83 83 82 81 79 79 79 79 78 74 71 70 72 80 93 90 86 89 97 92 64 51 44 50 52 56 61 68 79 88 95 94 80 94 97 96 96 90 98 94 98 96 95 99 99 98 94 98 92 86
82 85 84 85 81 83 81 80 77 78 79 79 75 72 72 73 74 96 98 94 89 92 98 98 73 60 53 53 56 62 67 74 81 90 94 83 65 94 98 99 96 82 85 92 99 96 97 100 100 93 90 92 92 90
82 83 82 81 81 82 79 80 78 79 79 80 78 75 71 73 91 95 98 97 89 90 97 94 89 61 54 57 69 77 69 83 76 88 91 82 74 85 97 98 94 84 88 95 98 96 96 96 97 79 70 60 61 61
81 81 82 84 84 80 80 79 77 78 78 79 78 73 74 73 78 95 97 88 92 99 98 91 92 85 63 81 86 94 90 83 90 91 87 86 82 80 97 96 88 81 92 95 99 94 91 83 74 73 61 57 65 71
81 83 82 85 84 82 81 79 78 78 79 78 75 74 89 92 94 94 87 92 98 97 94 96 96 93 86 84 87 92 88 99 85 96 90 82 95 99 93 90 87 85 99 98 98 78 66 61 58 60 62 64 72 75
80 83 81 88 83 83 82 81 79 80 78 77 84 92 96 97 87 87 95 98 96 99 99 93 84 92 87 96 96 97 95 96 96 92 85 95 98 88 80 78 77 85 98 79 98 94 84 73 76 82 83 76 80 87
76 80 84 89 82 83 82 81 80 79 76 92 94 96 96 86 96 98 99 99 99 98 95 90 86 93 83 95 96 86 96 93 94 92 92 98 98 94 73 77 73 74 76 84 83 83 83 79 83 82 83 81 82 84
71 76 85 86 83 82 80 80 81 81 92 89 94 96 96 99 99 99 97 93 97 81 86 91 86 84 85 80 95 95 90 92 89 93 93 95 97 85 81 83 79 80 82 86 82 88 85 82 81 82 87 92 95 95
74 78 79 84 81 80 79 80 75 85 87 94 98 96 99 99 99 96 97 91 92 90 84 90 91 92 84 89 97 98 95 94 96 99 98 98 86 81 80 76 80 79 84 86 88 88 90 92 87 91 96 97 95 96
80 80 80 82 81 80 81 79 83 86 95 99 99 100 98 98 94 93 94 95 95 97 95 97 96 96 98 97 93 93 91 96 98 98 97 97 92 94 84 81 90 97 96 95 96 95 95 95 97 96 97 96 95 97
82 82 80 81 80 81 80 82 84 94 99 100 98 98 96 95 98 99 97 94 97 95 98 98 97 95 94 92 93 96 98 97 97 98 99 96 95 95 96 95 96 97 96 97 97 96 97 97 96 98 97 97 96 97
81 81 74 81 81 81 82 84 91 92 99 100 96 88 97 92 97 89 93 94 98 99 99 95 98 95 94 97 99 96 98 97 99 99 97 94 97 96 96 95 96 96 96 97 96 96 97 97 96 97 97 96 96 94
71 81 81 82 84 86 87 94 94 97 98 94 98 97 99 99 99 97 92 99 98 97 97 90 97 92 99 96 91 98 99 99 98 98 96 94 95 97 97 97 96 95 96 96 97 96 96 94 93 91 93 92 86 88
81 86 81 81 85 87 94 94 99 99 97 96 98 98 97 99 99 100 100 99 98 100 98 99 100 94 93 92 98 99 98 98 96 96 97 96 95 94 93 95 96 94 95 96 93 93 93 94 87 88 81 77 78 81
85 83 82 82 81 94 98 98 99 96 98 97 97 97 98 95 97 97 98 97 94 90 94 97 96 97 99 99 98 98 97 95 96 97 96 95 94 94 94 94 94 94 92 90 82 84 88 84 85 86 85 81 93 95
81 84 84 79 87 99 98 98 79 90 95 96 96 97 98 99 98 97 98 97 91 93 95 93 99 100 99 98 97 94 93 90 92 95 96 97 96 94 93 91 92 91 90 87 90 82 84 88 85 83 86 89 96 97
88 90 86 87 98 97 78 87 85 88 93 89 96 93 98 94 98 99 98 90 92 97 99 99 99 99 97 95 89 88 86 84 88 92 91 96 94 88 94 95 90 92 95 96 95 93 88 94 93 90 95 98 96 95
91 84 97 98 100 88 78 75 85 84 90 93 91 90 94 92 95 98 94 96 98 99 98 98 97 95 91 90 89 83 89 87 85 84 86 88 95 95 96 94 94 97 98 97 97 96 96 94 94 96 98 99 90 94
78 79 95 98 98 92 90 86 82 81 94 95 92 92 96 97 96 79 94 96 99 96 95 92 90 84 91 88 85 84 79 75 83 87 87 94 95 95 95 96 98 96 95 93 90 94 92 91 88 94 96 95 95 96
92 98 99 99 99 96 92 92 82 81 85 87 91 89 91 97 84 93 94 98 98 96 94 92 88 89 83 83 94 94 88 84 90 95 97 96 97 97 94 92 88 91 93 89 91 94 96 97 91 93 94 95 94 97
99 97 99 98 88 87 84 89 87 85 93 90 87 86 97 93 93 92 86 99 97 97 98 91 86 87 95 97 98 99 90 87 94 96 96 90 92 91 85 83 89 91 95 96 94 94 96 96 94 94 93 95 95 98
98 96 97 88 89 88 78 84 87 83 84 84 88 96 92 95 90 92 97 98 98 97 96 95 93 92 95 91 95 97 94 85 87 96 94 87 93 91 91 93 97 97 97 98 97 96 95 95 92 88 91 96 96 97
96 94 92 83 89 82 93 92 88 90 87 83 97 95 94 92 92 99 98 98 99 97 97 98 97 98 91 90 93 91 89 86 84 86 89 89 93 97 97 96 96 99 95 93 93 96 94 95 95 93 94 98 99 97
90 89 96 94 92 94 82 87 91 83 89 89 88 95 89 92 98 99 99 98 99 98 98 99 98 92 93 93 92 91 92 89 88 87 86 91 94 95 96 94 92 97 95 95 95 94 96 98 100 100 99 98 99 99
92 94 90 95 89 94 90 86 92 95 90 93 95 98 99 97 98 97 94 98 98 93 94 95 96 92 93 92 92 92 93 92 90 95 98 100 100 99 98 98 99 98 96 95 91 97 92 97 98 95 97 100 98 99
97 94 94 95 96 96 99 99 98 96 94 97 94 90 94 97 96 94 96 98 98 98 96 93 94 92 94 93 96 97 97 98 98 94 93 96 98 98 96 97 96 96 96 95 96 98 95 98 99 99 99 99 98 98
91 95 94 93 96 98 98 96 94 93 95 96 96 98 98 98 96 96 98 97 97 96 95 96 96 94 94 94 94 96 99 97 96 93 91 92 95 96 96 97 98 96 94 94 92 93 94 97 98 98 97 99 99 98
96 96 97 97 99 97 95 97 97 98 98 97 98 98 99 99 100 97 96 98 97 95 95 93 94 96 96 96 96 94 91 95 96 93 94 92 94 94 93 96 95 93 94 94 96 96 93 96 99 98 99 100 100 99
94 95 96 95 98 98 96 98 97 97 98 98 97 95 94 96 98 99 96 97 99 97 95 95 94 95 95 94 94 97 96 97 96 94 94 94 92 93 96 95 95 94 92 96 97 97 96 95 98 98 98 99 100 100
Wind_Speed
14 16 20 19 16 15 13 11 10 10 9 9 8 6 4 6 7 5 3 5 4 1 4 7 5 4 4 4 2 5 6 6 5 5 3 3 2 3 4 2 7 3 2 3 4 5 2 21 9 10 6 10 11 11
12 16 20 18 18 14 13 11 9 11 10 10 10 7 5 4 5 6 2 3 3 3 2 3 6 4 2 3 2 5 2 2 2 3 4 3 3 3 8 3 6 3 5 3 5 4 6 8 10 10 11 10 10 10
12 16 20 19 14 13 12 11 12 11 11 9 10 8 5 4 4 5 1 3 2 2 4 0 5 6 5 4 3 3 2 3 2 4 3 3 3 3 4 3 5 10 15 4 4 5 10 10 9 11 10 11 11 11
13 19 20 20 17 12 12 12 12 12 12 12 10 8 6 4 5 3 1 3 2 1 2 3 3 2 5 6 6 5 2 1 2 0 1 2 2 2 3 2 3 4 6 7 6 8 8 10 10 8 8 10 12 12
15 20 17 18 16 14 14 14 12 12 13 12 12 10 7 5 5 1 2 2 2 2 1 4 7 6 7 6 6 6 4 3 1 3 2 2 3 2 2 3 3 5 5 3 3 6 5 5 6 7 10 10 10 10
12 18 20 16 16 15 15 14 11 12 11 14 12 10 8 6 3 4 5 3 4 2 2 3 4 2 4 7 5 5 4 2 2 2 3 3 5 3 2 3 4 4 5 7 3 6 8 7 7 9 10 10 10 10
11 15 17 17 17 16 15 15 14 12 14 14 12 10 8 5 1 2 2 2 5 3 3 3 4 2 4 4 2 3 3 2 3 2 3 3 3 3 1 3 7 4 4 5 4 5 7 6 5 6 7 10 14 13
14 14 16 15 11 16 15 14 14 15 15 14 12 10 7 4 3 2 2 3 4 4 1 2 4 2 2 1 0 3 2 2 1 3 3 3 3 2 3 6 6 5 5 6 5 5 5 5 7 7 7 11 14 12
13 14 13 16 18 17 15 14 15 18 17 15 12 11 4 1 1 2 9 8 3 2 1 2 3 4 2 0 2 1 3 1 4 3 4 2 2 3 4 8 4 1 2 4 4 5 5 8 12 13 13 13 12 10
12 14 13 15 18 18 16 15 16 18 18 16 4 2 3 3 16 11 2 1 1 1 2 4 3 2 4 1 2 1 2 3 2 6 1 3 3 7 8 7 5 4 2 4 5 6 4 10 11 13 13 10 10 10
12 16 19 18 17 19 17 16 19 21 14 2 3 3 1 15 2 2 2 3 2 4 4 5 6 3 1 3 3 3 3 3 2 3 4 2 3 4 8 9 8 11 10 11 10 9 10 9 10 10 10 10 10 10
14 20 21 21 18 19 18 19 22 7 3 6 4 3 3 2 2 4 4 3 4 5 3 4 4 5 2 3 2 3 3 1 4 1 2 1 3 8 9 9 9 8 10 11 11 12 11 11 10 10 10 9 9 7
16 19 22 22 21 19 18 21 14 19 9 3 1 4 3 4 5 5 5 3 2 2 1 1 2 3 3 2 1 2 2 4 0 1 2 3 7 8 8 8 9 9 10 12 11 10 11 11 10 10 9 6 7 6
17 21 20 21 19 18 19 21 16 9 3 1 3 4 4 3 4 4 2 2 3 3 3 3 2 3 0 3 0 2 4 2 3 2 2 4 8 8 8 8 9 8 8 10 8 8 8 8 7 7 7 5 6 5
19 22 21 18 19 20 20 18 12 4 2 3 4 5 4 2 3 2 1 1 2 2 3 3 3 3 1 1 3 2 2 3 3 3 2 6 8 8 8 7 7 7 6 6 4 5 6 5 7 6 4 4 5 4
21 19 7 20 21 20 20 13 4 2 1 3 2 2 1 2 3 2 1 2 1 1 2 2 2 2 4 3 2 4 2 3 2 2 4 7 7 7 7 6 5 6 6 6 4 4 4 5 6 6 4 4 4 5
13 3 20 22 23 22 17 5 1 3 4 2 1 1 1 0 1 3 4 1 2 3 2 2 4 6 1 1 2 3 2 2 5 5 5 8 8 7 6 6 6 6 6 5 4 4 4 4 6 5 6 6 6 6
4 14 22 23 17 7 2 1 2 3 4 1 1 2 2 1 1 1 1 1 2 1 1 1 2 1 3 2 2 3 3 4 6 6 6 7 7 6 6 6 5 6 6 5 5 5 4 5 7 5 7 6 7 7
13 15 24 24 10 5 4 4 3 2 2 1 2 2 2 1 0 2 1 1 1 3 2 2 1 1 2 2 3 5 6 5 6 4 5 5 6 6 6 6 6 5 6 6 7 5 4 4 1 3 3 2 1 2
22 25 24 20 6 1 3 2 2 3 3 3 2 2 1 1 1 1 1 1 2 1 1 2 2 2 2 1 2 5 7 8 8 7 7 5 4 6 6 6 5 5 4 4 3 2 2 1 2 4 3 3 4 2
14 11 13 6 3 3 2 3 2 2 3 2 2 3 2 1 2 3 2 2 0 3 1 2 3 1 2 3 5 7 8 8 7 5 7 8 6 6 4 3 5 3 3 3 3 2 2 4 2 3 3 3 2 1
6 11 3 2 3 3 0 2 4 3 3 2 2 2 2 2 2 2 1 1 3 1 1 3 3 3 3 4 4 5 5 6 8 7 8 8 7 4 5 4 4 3 3 3 4 3 3 2 3 3 4 2 1 2
8 3 3 3 2 1 2 2 2 3 3 3 1 2 2 1 1 1 1 2 1 1 2 3 4 5 7 5 6 6 8 10 7 6 7 4 3 4 4 3 2 3 3 1 4 5 4 3 3 3 2 1 2 2
5 3 4 4 3 3 0 2 2 2 3 3 3 3 3 2 2 0 3 2 1 1 4 7 7 6 5 4 2 2 4 5 5 4 3 5 5 3 4 4 5 4 3 3 4 4 4 3 3 1 0 1 2 2
4 4 2 3 3 4 5 4 3 3 3 3 2 3 2 2 2 3 3 2 3 3 3 4 5 4 4 3 2 3 3 5 6 6 1 5 4 4 6 6 4 3 2 4 1 2 2 3 2 2 3 3 3 3
4 4 4 6 4 4 5 5 5 5 3 4 2 2 2 2 3 4 1 2 2 3 5 6 6 5 3 5 5 4 2 4 6 5 3 3 3 5 5 5 3 2 3 4 4 4 4 3 3 4 3 2 1 1
5 4 2 1 2 3 2 1 2 2 4 5 3 3 2 3 5 1 1 3 1 2 3 3 3 3 7 6 7 5 6 6 7 7 5 7 7 6 4 5 7 2 3 5 5 4 4 4 3 3 2 3 3 3
2 3 5 3 2 1 4 3 3 5 4 2 5 4 4 3 3 1 1 3 1 4 5 4 4 7 9 8 7 8 7 8 9 9 9 8 6 5 5 5 5 9 5 4 4 5 5 4 4 4 4 2 3 3
2 1 3 4 3 1 2 5 3 2 2 1 3 2 2 2 1 1 2 2 2 5 7 8 7 8 8 7 6 5 5 5 7 7 6 4 2 1 1 3 3 3 3 4 6 5 6 4 3 3 1 1 3 2
2 1 3 3 4 4 2 2 2 1 3 1 3 3 2 1 1 1 2 1 2 3 3 6 7 7 8 8 8 6 5 3 2 4 6 6 5 4 4 4 3 3 3 4 3 2 5 3 3 2 3 3 3 4
2 1 3 3 3 2 3 3 2 2 1 2 2 2 3 2 2 1 2 2 2 6 7 6 5 5 7 7 7 6 3 4 4 8 9 8 6 6 5 4 3 3 4 4 5 4 3 4 3 4 5 5 5 5
1 2 3 3 2 2 2 1 3 2 2 2 2 3 2 2 2 2 1 3 3 7 6 6 7 6 6 6 5 5 9 5 4 6 9 8 7 6 5 3 4 4 4 4 4 4 3 4 4 4 4 5 5 5
2 2 3 4 2 2 3 1 3 2 2 3 4 4 4 3 4 2 2 1 0 1 7 8 8 8 10 10 10 8 9 7 11 13 12 10 8 7 4 4 3 4 5 4 4 4 5 5 4 5 5 5 5 5
Wind_Direction
174 174 172 168 164 170 168 171 170 163 158 155 142 139 101 69 44 31 321 37 78 47 13 26 9 35 14 45 85 297 38 343 17 22 2 319 350 297 293 303 337 109 204 200 211 201 351 1 352 47 47 57 67 68
180 167 165 166 168 177 167 163 167 166 159 157 148 144 130 88 56 29 21 18 18 60 259 338 287 279 6 56 83 341 203 52 201 52 15 330 316 292 312 346 9 35 3 52 39 64 47 36 45 34 49 62 70 87
186 176 166 160 168 164 156 160 159 163 161 157 157 154 152 126 95 75 322 310 22 60 318 41 244 212 197 184 166 112 39 58 42 178 181 251 292 345 317 4 334 355 5 61 108 64 53 31 55 46 43 70 69 70
175 151 151 152 168 181 163 158 157 152 154 147 150 151 157 125 131 165 29 323 16 305 108 298 25 156 154 149 164 172 213 279 233 101 169 210 229 279 284 348 41 338 347 341 88 110 110 55 36 52 74 75 68 69
161 149 153 168 180 157 149 146 148 150 150 144 146 144 143 118 107 53 25 349 0 52 346 286 313 255 164 168 185 178 173 215 44 5 37 252 256 22 277 88 40 355 353 21 62 8 98 53 59 61 57 67 89 91
149 166 163 174 161 151 147 145 150 153 156 147 147 143 130 124 127 59 18 3 334 55 68 343 305 290 146 161 179 185 188 109 99 128 246 254 253 133 298 94 84 30 40 27 69 73 91 98 77 93 90 84 76 86
131 147 162 165 163 151 149 151 158 159 155 147 144 136 127 133 71 101 76 290 343 66 64 312 299 291 199 178 168 62 80 158 138 230 237 226 272 111 284 79 120 85 64 53 29 134 98 38 96 99 98 103 98 81
142 142 144 143 169 154 156 156 160 157 147 139 135 123 121 113 84 90 180 115 70 78 60 286 271 4 137 185 187 137 136 87 277 225 281 248 298 201 96 120 133 132 110 79 71 68 101 170 161 177 152 94 84 80
158 159 162 174 169 159 155 160 160 147 140 132 126 122 84 21 91 76 99 65 33 95 266 201 197 246 327 240 130 319 137 131 224 205 245 138 283 59 109 127 103 50 31 123 103 97 86 73 67 56 68 80 90 88
162 164 165 165 166 155 151 149 149 142 133 132 112 101 158 207 115 116 115 86 108 174 228 241 249 268 137 146 262 134 164 217 217 226 169 111 79 100 94 95 118 124 87 42 160 61 87 93 83 75 71 78 87 88
172 165 161 156 153 151 153 148 142 133 132 83 128 162 90 146 148 186 162 211 182 216 209 225 196 191 274 120 210 211 206 244 258 261 128 209 114 118 107 88 62 59 64 76 80 77 55 84 105 102 89 80 75 74
175 166 157 168 171 153 153 150 145 141 129 142 106 132 100 189 180 209 182 225 194 236 199 163 218 165 225 112 99 320 233 93 253 168 89 116 100 111 106 94 84 76 74 67 65 67 69 76 83 89 88 83 76 72
170 166 175 169 160 153 150 153 162 115 102 98 256 144 194 182 202 176 192 243 215 238 280 87 8 129 34 73 115 219 265 233 3 196 154 57 129 119 119 110 85 79 84 84 74 70 66 67 69 83 90 79 85 78
161 150 159 157 160 161 158 161 137 104 93 194 191 190 221 158 245 184 181 181 254 74 77 82 39 115 183 55 209 242 242 248 258 189 92 134 122 88 91 98 92 81 77 83 79 83 83 82 81 74 76 87 88 74
151 149 153 154 156 156 158 143 106 69 68 256 209 206 199 181 57 37 351 83 18 35 65 40 19 88 174 214 211 274 313 252 26 64 91 120 117 113 103 101 104 103 100 96 93 100 109 100 91 88 84 92 98 99
143 133 144 151 147 139 138 123 53 62 268 251 294 164 312 137 137 183 192 171 72 37 32 89 166 181 234 190 170 221 259 28 103 85 105 113 105 106 112 112 115 111 108 114 113 118 115 109 122 140 113 120 145 152
145 111 154 140 126 117 106 95 130 173 253 265 178 75 327 173 13 131 190 160 115 154 179 173 209 213 87 205 231 26 58 95 121 112 109 119 121 120 114 108 114 128 124 122 121 109 130 141 137 148 160 191 185 172
101 138 138 136 127 95 47 91 177 203 234 169 222 139 75 27 348 108 126 230 116 232 216 259 311 142 192 206 114 124 106 91 90 101 106 109 109 115 122 127 124 127 133 126 132 149 163 183 212 203 171 187 184 185
136 139 141 141 137 127 156 184 213 209 70 98 92 61 58 290 237 297 33 355 316 258 306 310 233 249 85 57 109 125 133 124 124 112 117 112 122 137 137 132 134 134 138 161 176 190 194 172 154 102 87 58 357 80
143 145 147 151 90 171 151 181 208 161 174 175 115 140 195 127 96 36 312 287 238 293 274 232 83 69 63 341 119 133 125 127 127 130 139 135 127 131 144 153 157 157 172 171 136 128 141 164 79 95 77 70 79 41
116 140 131 101 353 283 233 183 152 93 122 143 123 141 128 125 192 200 213 229 109 223 182 79 102 95 28 64 102 118 134 143 151 150 148 145 156 158 172 169 152 164 161 171 156 184 151 126 122 102 93 97 85 75
106 113 99 103 209 272 94 283 133 162 95 121 120 208 164 200 178 203 208 165 242 83 85 126 144 129 120 117 123 127 150 129 120 122 124 140 163 167 170 168 158 175 158 170 135 150 101 92 72 60 90 137 279 294
125 149 127 130 186 191 253 13 104 141 140 177 166 173 170 151 122 59 252 194 79 252 145 130 130 118 109 99 100 99 119 127 130 133 143 156 146 129 128 118 126 129 133 37 105 108 128 122 85 74 52 8 31 353
75 140 182 196 191 135 263 186 203 166 123 179 193 201 148 137 141 319 254 130 153 108 88 112 120 117 106 105 93 121 120 117 122 111 121 115 115 109 116 107 91 71 82 88 100 122 115 138 157 112 138 217 343 31
171 189 206 166 169 153 161 175 193 144 192 210 152 155 150 118 185 232 233 130 148 142 137 138 137 141 140 164 112 101 111 126 121 125 137 117 117 94 87 80 78 74 60 86 71 131 176 122 96 69 56 72 89 73
188 164 222 169 175 180 167 164 186 193 152 177 149 91 147 173 227 237 75 138 147 153 170 167 163 160 159 137 131 131 154 116 107 95 51 74 109 138 146 139 119 347 27 90 90 69 61 104 105 89 31 50 133 92
157 169 193 312 281 81 65 23 97 139 169 189 141 138 154 222 233 153 115 353 8 151 119 109 133 140 136 109 83 67 51 76 93 102 97 73 63 47 76 126 121 161 72 75 74 86 98 76 81 79 39 16 69 91
53 114 156 226 92 352 167 153 156 196 185 156 135 177 206 218 193 42 59 301 347 77 70 59 82 102 106 112 110 104 89 94 93 92 84 68 64 64 62 68 77 86 78 71 78 67 62 85 80 72 68 53 338 351
144 191 94 137 129 177 225 192 186 75 324 58 181 146 147 66 23 75 325 6 31 95 101 98 90 98 96 95 92 98 114 121 121 122 117 130 90 349 130 97 103 109 102 95 92 107 96 103 121 132 124 243 276 357
147 139 115 142 153 195 84 29 73 36 30 75 120 101 83 64 267 315 10 12 103 110 111 117 125 126 129 132 132 99 47 41 92 148 153 162 166 154 120 110 87 56 92 116 131 50 20 40 336 51 24 16 37 23
108 189 150 147 134 62 88 89 40 42 33 60 35 64 114 148 326 338 324 252 202 132 131 140 136 143 140 136 136 121 92 350 49 77 95 106 106 102 100 102 113 92 78 80 88 75 52 30 34 49 42 42 38 41
195 225 144 122 115 115 114 185 168 191 164 159 202 105 113 115 185 244 277 345 121 136 150 150 148 137 103 87 80 89 107 118 94 98 94 100 101 97 96 85 82 88 92 91 88 90 75 67 61 49 35 45 41 34
34 27 67 106 112 181 203 193 180 195 168 209 190 159 169 183 180 205 310 58 155 196 125 106 105 103 100 101 100 91 83 82 84 89 86 90 104 112 96 91 90 84 82 90 86 95 84 74 57 53 62 52 37 23